Weather in Pichaevo

Russia / Tambov Oblast     53°14′12″N   42°12′30″E
temp.,
°C
wind,
m/s
gust,
m/s
humid.,
%
clouds,
%
prec.,
mm/h
press.,
hPa
HPBL,
m
2 march, tue
tue200:00−4wsw6129585 0.1 1020619
03:00−2wsw7139392 0.1 1017650
06:00−1wsw71394100 0.1 1012563
09:000w71497100 0.2 1010719
12:00+1w713100100 0.8 1008635
15:00+1wnw51099100 1.0 1007531
18:00−1wnw4993100 0.2 1007245
21:00−3wnw4995100 0.3 1008224
3 march, wed
wed300:00−4wnw489594 0.1 1008164
03:00−5nw499796 0.1 1009257
06:00−4nw5119598 0.2 1010512
09:00−5nw6129093 0.2 1012744
12:00−5nw71086100 0.1 1013833
15:00−4nw61084100 0.1 1014975
18:00−6wnw4109087 0.0 1014215
21:00−5w5119579 0.0 1015334
4 march, thu
thu400:00−5w499592 0.1 1014235
03:00−5wsw4109692 0.1 1014309
06:00−4wsw5119499 0.1 1012448
09:00−3wsw71391100 0.2 1010635
12:000sw8158993 0.0 1007684
15:00+1sw9168389 0.0 1006785
18:00−1wsw7178115 0.0 1004710
21:00−1wsw6178219 0.0 1003583
5 march, fri
fri500:00+1wsw61392100 0.0 1002531
03:00+1wsw4899100 0.7 1002327
06:000nw3699100 1.6 1003251
09:00−2n2497100 3.0 1005288
12:00−2n1197100 0.8 1007242
15:00−1ene2296100 1.3 1008270
18:00−3e4697100 0.8 1006257
21:00−3e5897100 2.8 1005296
6 march, sat
sat600:00−3ne5896100 2.6 1003297
03:00−5nne61194100 3.2 1003479
06:00−6nnw4994100 0.2 1005365
09:00−6nw589497 0.3 1008451
12:00−5nw588489 0.0 1009943
15:00−5wnw588594 0.1 1010850
18:00−8w349155 0.0 101168
21:00−10w359656 0.1 1013116